This is the latest recevied weather packets stored in our database for station/object GW4288. If no packets are shown the sender has not sent any weather packets the latest 10 day(s).
| Time | Temp. | Humidity | Pressure | Rain* | Wind** | Luminosity | Snow |
|---|---|---|---|---|---|---|---|
| 1788276746 | 22.78° C | 56% | 1021.4 hPa | 0 mm | - | 91 W/m² | - |
| 1788276627 | 23.33° C | 54% | 1021.5 hPa | 0 mm | - | 116 W/m² | - |
| 1788276387 | 23.33° C | 54% | 1021.3 hPa | 0 mm | - | 142 W/m² | - |
| 1788276266 | 22.78° C | 53% | 1021.5 hPa | 0 mm | - | 149 W/m² | - |
| 1788276146 | 22.78° C | 54% | 1021.5 hPa | 0 mm | - | 150 W/m² | - |
| 1788276039 | 22.78° C | 53% | 1021.3 hPa | 0 mm | - | 150 W/m² | - |
| 1788275906 | 22.78° C | 54% | 1021.3 hPa | 0 mm | - | 136 W/m² | - |
| 1788275786 | 22.78° C | 53% | 1021.3 hPa | 0 mm | - | 101 W/m² | - |
| 1788275547 | 22.78° C | 52% | 1021.5 hPa | 0 mm | - | 105 W/m² | - |
| 1788275426 | 22.78° C | 56% | 1021.2 hPa | 0 mm | - | 191 W/m² | - |
| 1788275319 | 22.78° C | 53% | 1021.2 hPa | 0 mm | - | 107 W/m² | - |
| 1788275186 | 23.33° C | 53% | 1021.2 hPa | 0 mm | - | 189 W/m² | - |
| 1788274946 | 22.78° C | 55% | 1021.3 hPa | 0 mm | - | 189 W/m² | - |
| 1788274828 | 22.78° C | 55% | 1021.3 hPa | 0 mm | - | 191 W/m² | - |
| 1788274586 | 22.78° C | 54% | 1021.3 hPa | 0 mm | - | 193 W/m² | - |
| 1788274468 | 22.78° C | 55% | 1021.2 hPa | 0 mm | - | 210 W/m² | - |
| 1788274346 | 22.22° C | 55% | 1021.5 hPa | 0 mm | - | 207 W/m² | - |
| 1788274308 | 22.22° C | 57% | 1021.4 hPa | 0 mm | - | 196 W/m² | - |
| 1788274156 | 22.78° C | 56% | 1021.3 hPa | 0 mm | - | 102 W/m² | - |
| 1788273986 | 22.78° C | 55% | 1021.2 hPa | 0 mm | - | 108 W/m² | - |
| 1788273881 | 22.78° C | 54% | 1021.1 hPa | 0 mm | - | 254 W/m² | - |
| 1788273746 | 22.78° C | 57% | 1021.3 hPa | 0 mm | - | 256 W/m² | - |
| 1788273626 | 22.22° C | 55% | 1021.3 hPa | 0 mm | - | 182 W/m² | - |
| 1788273386 | 22.22° C | 57% | 1021.1 hPa | 0 mm | - | 278 W/m² | - |
| 1788273146 | 23.33° C | 56% | 1021.3 hPa | 0 mm | - | 108 W/m² | - |
* Rain latest hour (hover to see other rain measurements)
** Current wind speed in m/s (hover to see current wind gust speed)